星链-33920 (STARLINK-33920)

导读

STARLINK-33920是美国SpaceX星链星座的一员,于2025年4月28日发射入轨,服务全球高速互联网接入需求。星链系统通过大规模低轨卫星组网,可为偏远地区、灾害现场等传统网络覆盖盲区提供宽带通信服务,该卫星加入后进一步扩充了星链星座的在轨规模,提升了全球网络覆盖与服务能力。

基本信息
目录编号:
63710
目录名称:
STARLINK-33920
国际标识:
2025-087P
轨道中心:
EARTH
卫星名称:
星链-33920
卫星全名:
星链-33920 (STARLINK-33920)
卫星状态:
在轨 (已飞行412 天)
发射日期:
2025-04-28 UTC
国别 :
美国 (US)
星等 :
--
轨道信息
数据来源 国际轨道数据
星历时间: 2026-06-13T23:31:23+0800
12小时前
查看轨道信息
半长轴: 6848.821km
偏心率: 0.0000808
轨道倾角: 53.159°
近地点辐角 85.046°
升交点赤经 133.667°
平近点角 275.064°
近地点: 470.13km
远地点: 471.238km
周期: 94.012分钟
每日圈数: 15.317188
详细信息
固有亮度:
5
最大亮度:
2.5
卫星平台:
Starlink V1.0
覆盖范围:
全球
运营商:
太空探索技术公司
运营商所在国:
美国
制造商(研发单位):
太空探索技术公司
制造商所在国:
美国
使用方式:
暂无
卫星简介
Starlink 计划是 SpaceX 推出的全球卫星互联网项目,通过发射低轨道卫星,为全球尤其是偏远地区提供高速、低延迟的互联网服务。自 2019 年起,Starlink 已部署数千颗卫星,旨在缩小全球数字鸿沟,推动互联网普及。该项目还为军事、航空等行业提供通信支持,带来广泛经济效益。
2D轨道图
3D轨道图
轨道高度分析图
轨道倾角分析图
轨道综合分析图
查看轨道综合分析图